Regional Weather Roundup
Issued by NWS

Home | Current Version | Previous Version | Graphics & Text | Print | Product List | Glossary On
Versions: 1 2 3 4 5 6 7 8 9 10 11 12 13 14 15 16 17 18 19 20 21 22 23 24 25 26 27 28 29 30 31 32 33 34 35 36 37 38 39 40 41 42 43 44 45 46 47 48 49 50
000
ASUS43 KLSX 221507
RWRMO

WEATHER SUMMARY FOR MISSOURI
NATIONAL WEATHER SERVICE SPRINGFIELD MO
1000 AM CDT SUN OCT 22 2017

NOTE: "FAIR" INDICATES FEW OR NO CLOUDS BELOW 12,000 FEET WITH NO
       SIGNIFICANT WEATHER AND/OR OBSTRUCTIONS TO VISIBILITY.
       CURRENT SKY AND/OR WEATHER CONDITIONS ARE NOT AVAILABLE FOR
       CHILLICOTHE AND FARMINGTON.

MOZ001>031-035>038-043-044-053-054-221600-
...NORTHERN AND WESTERN MISSOURI...

CITY           SKY/WX    TMP DP  RH WIND       PRES   REMARKS
KANSAS CTY INT PTSUNNY   52  47  83 NW8       30.12R
KANSAS C DTWN  MOSUNNY   53  47  79 NW9       30.10R
LEE`S SUMMIT   CLOUDY    52  49  89 NW7       30.11R
ST JOSEPH      SUNNY     54  48  80 NW6       30.12R
CHILLICOTHE      N/A     52  50  93 NW3       30.09R
KIRKSVILLE     CLOUDY    51  51 100 N7        30.06S

$$
MOZ066>068-077>081-088>096-101>105-221600-
...SOUTHWEST MISSOURI...

CITY           SKY/WX    TMP DP  RH WIND       PRES   REMARKS
SPRINGFIELD    LGT RAIN  52  52 100 N14       30.06R
JOPLIN         CLOUDY    52  50  93 NW10      30.13R
BRANSON        LGT RAIN  54  52  94 NW14      30.07R FOG

$$
MOZ032>034-039>042-045>050-055>058-069>072-221600-
...CENTRAL MISSOURI...

CITY           SKY/WX    TMP DP  RH WIND       PRES   REMARKS
COLUMBIA       LGT RAIN  53  52  96 NW17      30.03R
JEFFERSON CITY CLOUDY    54  51  90 NW10      30.02R
ROLLA          LGT RAIN  56  56 100 W12       30.02R VSB 1/4
SEDALIA        LGT RAIN  51  51 100 NW9       30.11R
WHITEMAN AFB   CLOUDY    51  49  93 NW8       30.06R
WARRENSBURG    CLOUDY    50  48  93 NW5       30.10S
OSAGE BEACH    LGT RAIN  52  51  97 NW8       30.07R

$$
MOZ051-052-059>065-221600-
...EAST CENTRAL MISSOURI...

CITY           SKY/WX    TMP DP  RH WIND       PRES   REMARKS
ST LOUIS INTL  CLOUDY    62  61  96 NW8       29.95R
SPIRIT OF STL  CLOUDY    62  60  93 NW7       29.95R
ST CHARLES     CLOUDY    60  59  96 NW8       29.93R

$$
MOZ072>076-082>087-097>100-106>115-221600-
...SOUTH CENTRAL AND SOUTHEAST MISSOURI...

CITY           SKY/WX    TMP DP  RH WIND       PRES   REMARKS
CAPE GIRARDEAU MOSUNNY   71  62  73 S23G30    29.97F
FARMINGTON     CLOUDY    62  59  90 NW5       29.98F
POPLAR BLUFF   LGT RAIN  66  63  90 CALM      29.95F
WEST PLAINS    CLOUDY    60  58  92 W7        30.04R

$$



USA.gov is the U.S. government's official web portal to all federal, state and local government web resources and services.